Regional Weather Roundup
Issued by NWS

Home | Current Version | Previous Version | Text Only | Print | Product List | Glossary Off
Versions: 1 2 3 4 5 6 7 8 9 10 11 12 13 14 15 16 17 18 19 20 21 22 23 24 25 26 27 28 29 30 31 32 33 34 35 36 37 38 39 40 41 42 43 44 45 46 47 48 49 50

000
ASUS43 KFSD 162010
RWRSD

WEATHER ROUNDUP FOR SOUTH DAKOTA
NATIONAL WEATHER SERVICE SIOUX FALLS SD
200 PM CST MON JAN 16 2017

NOTE: "FAIR" INDICATES FEW OR NO CLOUDS BELOW 12,000 FEET WITH NO
SIGNIFICANT WEATHER AND/OR OBSTRUCTIONS TO VISIBILITY.


SDZ001>005-009-010-012>017-162100-
NORTHWEST AND NORTH CENTRAL SOUTH DAKOTA

CITY           SKY/WX    TMP DP  RH WIND       PRES   REMARKS
BUFFALO          N/A     25  16  68 NW23      29.99F WCI  10
FAITH            N/A     21  14  74 NW14      30.04F WCI   8
MOBRIDGE       CLOUDY    18   7  62 NW8       30.03F WCI   8
$$

SDZ012>016-024>037-041>051-057-063-072>074-162100-
SOUTHWEST AND SOUTH CENTRAL SOUTH DAKOTA

CITY           SKY/WX    TMP DP  RH WIND       PRES   REMARKS
RAPID CTY ARPT SUNNY     34  20  56 N18       30.04F WCI  23
PIERRE         CLOUDY    22  13  68 NW13      30.05F WCI  10
CUSTER         SUNNY     40   8  26 N5        30.00F
ELLSWORTH AFB  SUNNY     34  18  52 N17       30.03F WCI  23
PHILIP         SUNNY     30  18  60 W12       30.08F WCI  20
PINE RIDGE     SUNNY     29  21  72 SW8       30.07F WCI  21
SPEARFISH      FAIR      37  18  44 W13       30.06F
WINNER         FAIR      29  14  53 NW17      30.04F WCI  17
$$

SDZ004>011-016>023-039-040-162100-
NORTHEAST SOUTH DAKOTA

CITY           SKY/WX    TMP DP  RH WIND       PRES   REMARKS
ABERDEEN       CLOUDY    20   6  55 N6        30.05F WCI  12
WATERTOWN      CLOUDY    24  19  81 N6        30.00S WCI  17
BROOKINGS      CLOUDY    31  23  72 CALM      29.99F
SISSETON         N/A     25  19  78 N7        30.03F WCI  17
$$

SDZ017-020-022-023-036>040-048>070-162100-
SOUTHEAST SOUTH DAKOTA

CITY           SKY/WX    TMP DP  RH WIND       PRES   REMARKS
SIOUX FALLS    FRZ RAIN  31  24  75 N6        29.98F WCI  25
HURON          CLOUDY    20  14  77 NW10      30.03F WCI   9
CHAMBERLAIN    CLOUDY    23  14  69 W7        30.05S WCI  15
MITCHELL       CLOUDY    27  19  72 NW12      30.04F WCI  17
YANKTON        CLOUDY    30  25  80 CALM      29.99F
$$

ABBREVIATIONS USED IN REMARKS
   TC - TEMPERATURE IN CELSIUS
  WCI - WIND CHILL INDEX
   HX - HEAT INDEX
  VSB - VISIBILITY





USA.gov is the U.S. government's official web portal to all federal, state and local government web resources and services.